,,Stat6,,Stat2,,Stat8,,Stat9,,Stat10,,Wind1,,Wind1,
time,status,PA1M_AVG,status,PR1M_SUM,status,RH1M_AVG,status,SR1M_AVG,status,TA1M_AVG,status,W1dAve1m,status,W1sAve1m,
2006-12-21, 00:00:00,VALID,915.459,VALID,0,VALID,94.1941,VALID,0,VALID,19.7129,VALID,29,VALID,0.378049,
2006-12-21, 00:01:00,VALID,915.482,VALID,0,VALID,94.2043,VALID,-0.0169808,VALID,19.6898,VALID,14,VALID,0.731357,
2006-12-21, 00:02:00,VALID,915.482,VALID,0,VALID,94.2297,VALID,0.0339617,VALID,19.6836,VALID,15,VALID,0.449405,
2006-12-21, 00:03:00,VALID,915.482,VALID,0,VALID,94.3162,VALID,0.0169808,VALID,19.6675,VALID,16,VALID,0.253819,
2006-12-21, 00:04:00,VALID,915.482,VALID,0,VALID,94.4268,VALID,0.0169808,VALID,19.6444,VALID,17,VALID,0.382068,
2006-12-21, 00:05:00,VALID,915.477,VALID,0,VALID,94.5336,VALID,0.0169808,VALID,19.6382,VALID,20,VALID,0.18388,
2006-12-21, 00:06:00,VALID,915.46,VALID,0,VALID,94.5641,VALID,0.0339617,VALID,19.6255,VALID,20,VALID,0,
2006-12-21, 00:07:00,VALID,915.45,VALID,0,VALID,94.6201,VALID,-0.0509425,VALID,19.6041,VALID,20,VALID,0,
2006-12-21, 00:08:00,VALID,915.445,VALID,0,VALID,94.7498,VALID,-0.0679233,VALID,19.5815,VALID,20,VALID,0.0132068,
2006-12-21, 00:09:00,VALID,915.415,VALID,0,VALID,94.8057,VALID,-0.101885,VALID,19.5552,VALID,20,VALID,0.165179,
2006-12-21, 00:10:00,VALID,915.4,VALID,0,VALID,94.8706,VALID,-0.101885,VALID,19.546,VALID,20,VALID,0.046131,
2006-12-21, 00:11:00,VALID,915.375,VALID,0,VALID,94.9355,VALID,-0.101885,VALID,19.5359,VALID,20,VALID,0.0354959,
2006-12-21, 00:12:00,VALID,915.361,VALID,0,VALID,94.8973,VALID,-0.101885,VALID,19.5244,VALID,20,VALID,0.0775923,
2006-12-21, 00:13:00,VALID,915.354,VALID,0,VALID,95.0207,VALID,-0.101885,VALID,19.4879,VALID,20,VALID,0.173478,
2006-12-21, 00:14:00,VALID,915.355,VALID,0,VALID,95.1631,VALID,-0.101885,VALID,19.469,VALID,345,VALID,0.662609,
2006-12-21, 00:15:00,VALID,915.333,VALID,0,VALID,95.3475,VALID,-0.101885,VALID,19.433,VALID,340,VALID,0.639353,
2006-12-21, 00:16:00,VALID,915.337,VALID,0,VALID,95.3754,VALID,-0.0679233,VALID,19.4231,VALID,338,VALID,0.756747,
2006-12-21, 00:17:00,VALID,915.325,VALID,0,VALID,95.4148,VALID,-0.0849042,VALID,19.4268,VALID,353,VALID,0.864644,
2006-12-21, 00:18:00,VALID,915.298,VALID,0,VALID,95.528,VALID,-0.0849042,VALID,19.4139,VALID,4,VALID,1.06068,
2006-12-21, 00:19:00,VALID,915.275,VALID,0,VALID,95.5267,VALID,-0.0849042,VALID,19.4199,VALID,4,VALID,1.37671,
2006-12-21, 00:20:00,VALID,915.252,VALID,0,VALID,95.481,VALID,-0.101885,VALID,19.4395,VALID,353,VALID,1.4226,
2006-12-21, 00:21:00,VALID,915.231,VALID,0,VALID,95.4644,VALID,-0.118866,VALID,19.4395,VALID,353,VALID,1.50479,
2006-12-21, 00:22:00,VALID,915.206,VALID,0,VALID,95.5039,VALID,0.0339617,VALID,19.4281,VALID,359,VALID,1.30804,
2006-12-21, 00:23:00,VALID,915.174,VALID,0,VALID,95.4377,VALID,0.0339617,VALID,19.4475,VALID,358,VALID,1.38765,
2006-12-21, 00:24:00,VALID,915.16,VALID,0,VALID,95.2343,VALID,0.0509425,VALID,19.4698,VALID,352,VALID,1.46414,
2006-12-21, 00:25:00,VALID,915.148,VALID,0,VALID,94.985,VALID,0.0679233,VALID,19.5252,VALID,352,VALID,1.5404,
2006-12-21, 00:26:00,VALID,915.124,VALID,0,VALID,94.8134,VALID,0,VALID,19.5508,VALID,4,VALID,1.01763,
2006-12-21, 00:27:00,VALID,915.108,VALID,0,VALID,94.7943,VALID,0.0169808,VALID,19.5542,VALID,3,VALID,1.05287,
2006-12-21, 00:28:00,VALID,915.104,VALID,0,VALID,94.8693,VALID,0.0169808,VALID,19.5475,VALID,341,VALID,1.45472,
2006-12-21, 00:29:00,VALID,915.084,VALID,0,VALID,94.9278,VALID,0.0169808,VALID,19.5349,VALID,3,VALID,1.182,
2006-12-21, 00:30:00,VALID,915.091,VALID,0,VALID,94.9774,VALID,0.0339617,VALID,19.5314,VALID,347,VALID,1.35781,
2006-12-21, 00:31:00,VALID,915.069,VALID,0,VALID,94.9647,VALID,0.0169808,VALID,19.5344,VALID,347,VALID,1.52939,
2006-12-21, 00:32:00,VALID,915.072,VALID,0,VALID,94.8375,VALID,0,VALID,19.5766,VALID,354,VALID,1.74575,
2006-12-21, 00:33:00,VALID,915.059,VALID,0,VALID,94.643,VALID,0.0339617,VALID,19.6255,VALID,2,VALID,1.76321,
2006-12-21, 00:34:00,VALID,915.051,VALID,0,VALID,94.5972,VALID,0.0169808,VALID,19.6414,VALID,353,VALID,1.22675,
2006-12-21, 00:35:00,VALID,915.035,VALID,0,VALID,94.629,VALID,0.0339617,VALID,19.6282,VALID,1,VALID,1.82694,
2006-12-21, 00:36:00,VALID,915.02,VALID,0,VALID,94.5705,VALID,0.0509425,VALID,19.6441,VALID,4,VALID,1.60719,
2006-12-21, 00:37:00,VALID,915.001,VALID,0,VALID,94.3391,VALID,0.0169808,VALID,19.6734,VALID,355,VALID,2.00938,
2006-12-21, 00:38:00,VALID,914.999,VALID,0,VALID,94.1076,VALID,0.0339617,VALID,19.705,VALID,358,VALID,1.62921,
2006-12-21, 00:39:00,VALID,914.989,VALID,0,VALID,94.0606,VALID,0.0169808,VALID,19.7281,VALID,12,VALID,1.58261,
2006-12-21, 00:40:00,VALID,914.982,VALID,0,VALID,94.1089,VALID,0.0509425,VALID,19.7176,VALID,10,VALID,1.67081,
2006-12-21, 00:41:00,VALID,914.957,VALID,0,VALID,94.1089,VALID,0,VALID,19.7283,VALID,6,VALID,1.49275,
2006-12-21, 00:42:00,VALID,914.931,VALID,0,VALID,94.0797,VALID,0.0339617,VALID,19.7281,VALID,2,VALID,1.15868,
2006-12-21, 00:43:00,VALID,914.931,VALID,0,VALID,94.0797,VALID,0.0679233,VALID,19.7248,VALID,349,VALID,1.37147,
2006-12-21, 00:44:00,VALID,914.926,VALID,0,VALID,94.1153,VALID,0.0509425,VALID,19.7156,VALID,344,VALID,1.47284,
2006-12-21, 00:45:00,VALID,914.906,VALID,0,VALID,94.1496,VALID,0.0339617,VALID,19.7055,VALID,355,VALID,1.30655,
2006-12-21, 00:46:00,VALID,914.906,VALID,0,VALID,94.1534,VALID,0.0169808,VALID,19.699,VALID,5,VALID,1.3125,
2006-12-21, 00:47:00,VALID,914.884,VALID,0,VALID,94.1102,VALID,0,VALID,19.7052,VALID,358,VALID,1.37667,
2006-12-21, 00:48:00,VALID,914.868,VALID,0,VALID,94.0784,VALID,0.0339617,VALID,19.7084,VALID,9,VALID,1.10268,
2006-12-21, 00:49:00,VALID,914.868,VALID,0,VALID,94.0542,VALID,0.0169808,VALID,19.7147,VALID,353,VALID,1.09215,
2006-12-21, 00:50:00,VALID,914.858,VALID,0,VALID,93.8381,VALID,0.0169808,VALID,19.7375,VALID,360,VALID,1.69646,
2006-12-21, 00:51:00,VALID,914.861,VALID,0,VALID,93.5049,VALID,0.0339617,VALID,19.7924,VALID,354,VALID,1.40716,
2006-12-21, 00:52:00,VALID,914.857,VALID,0,VALID,93.2887,VALID,-0.0679233,VALID,19.8361,VALID,346,VALID,1.45035,
2006-12-21, 00:53:00,VALID,914.867,VALID,0,VALID,93.159,VALID,-0.0679233,VALID,19.8654,VALID,359,VALID,1.2439,
2006-12-21, 00:54:00,VALID,914.853,VALID,0,VALID,93.1628,VALID,-0.0679233,VALID,19.8751,VALID,2,VALID,1.59737,
2006-12-21, 00:55:00,VALID,914.854,VALID,0,VALID,93.215,VALID,-0.0679233,VALID,19.8781,VALID,4,VALID,1.94957,
2006-12-21, 00:56:00,VALID,914.863,VALID,0,VALID,93.3599,VALID,-0.0849042,VALID,19.8661,VALID,360,VALID,1.40476,
2006-12-21, 00:57:00,VALID,914.87,VALID,0,VALID,93.5558,VALID,-0.0849042,VALID,19.8304,VALID,8,VALID,1.8492,
2006-12-21, 00:58:00,VALID,914.875,VALID,0,VALID,93.7427,VALID,-0.0679233,VALID,19.7973,VALID,8,VALID,1.8689,
2006-12-21, 00:59:00,VALID,914.875,VALID,0,VALID,93.8826,VALID,-0.101885,VALID,19.7849,VALID,8,VALID,1.87257,
2006-12-21, 01:00:00,VALID,914.882,VALID,0,VALID,93.9411,VALID,-0.0849042,VALID,19.7887,VALID,360,VALID,1.52889,
2006-12-21, 01:01:00,VALID,914.883,VALID,0,VALID,94.011,VALID,-0.101885,VALID,19.7551,VALID,1,VALID,0.919643,
2006-12-21, 01:02:00,VALID,914.886,VALID,0,VALID,94.0949,VALID,-0.0849042,VALID,19.7397,VALID,342,VALID,1.41927,
2006-12-21, 01:03:00,VALID,914.895,VALID,0,VALID,94.1966,VALID,-0.101885,VALID,19.7199,VALID,349,VALID,1.22148,
2006-12-21, 01:04:00,VALID,914.902,VALID,0,VALID,94.2412,VALID,-0.118866,VALID,19.7035,VALID,359,VALID,1.07832,
2006-12-21, 01:05:00,VALID,914.918,VALID,0,VALID,94.3505,VALID,-0.0849042,VALID,19.6707,VALID,5,VALID,1.46183,
2006-12-21, 01:06:00,VALID,914.932,VALID,0,VALID,94.47,VALID,-0.0849042,VALID,19.6553,VALID,15,VALID,1.95712,
2006-12-21, 01:07:00,VALID,914.94,VALID,0,VALID,94.4586,VALID,-0.0169808,VALID,19.6476,VALID,27,VALID,1.86828,
2006-12-21, 01:08:00,VALID,914.952,VALID,0,VALID,94.2806,VALID,0,VALID,19.6863,VALID,14,VALID,1.57958,
2006-12-21, 01:09:00,VALID,914.959,VALID,0,VALID,94.0568,VALID,0,VALID,19.7251,VALID,28,VALID,1.95759,
2006-12-21, 01:10:00,VALID,914.97,VALID,0,VALID,93.8406,VALID,0,VALID,19.7603,VALID,17,VALID,1.49364,
2006-12-21, 01:11:00,VALID,914.986,VALID,0,VALID,93.744,VALID,0,VALID,19.7668,VALID,360,VALID,1.21254,
2006-12-21, 01:12:00,VALID,914.998,VALID,0,VALID,93.7338,VALID,0.0169808,VALID,19.7566,VALID,345,VALID,1.12046,
2006-12-21, 01:13:00,VALID,915.003,VALID,0,VALID,93.8508,VALID,0.0169808,VALID,19.7474,VALID,1,VALID,1.19045,
2006-12-21, 01:14:00,VALID,915.018,VALID,0,VALID,93.9601,VALID,0.0339617,VALID,19.7318,VALID,26,VALID,1.4826,
2006-12-21, 01:15:00,VALID,915.022,VALID,0,VALID,93.9589,VALID,0.0169808,VALID,19.7221,VALID,6,VALID,1.68638,
2006-12-21, 01:16:00,VALID,915.023,VALID,0,VALID,93.9754,VALID,0,VALID,19.741,VALID,23,VALID,1.97805,
2006-12-21, 01:17:00,VALID,915.005,VALID,0,VALID,93.8088,VALID,0,VALID,19.773,VALID,18,VALID,2.05983,
2006-12-21, 01:18:00,VALID,915.012,VALID,0,VALID,93.5774,VALID,0,VALID,19.8252,VALID,18,VALID,1.89804,
2006-12-21, 01:19:00,VALID,915.011,VALID,0,VALID,93.5214,VALID,0.0339617,VALID,19.8314,VALID,29,VALID,1.96189,
2006-12-21, 01:20:00,VALID,915.001,VALID,0,VALID,93.4973,VALID,0.0339617,VALID,19.8475,VALID,26,VALID,2.19585,
2006-12-21, 01:21:00,VALID,915,VALID,0,VALID,93.3409,VALID,0.0169808,VALID,19.8701,VALID,15,VALID,1.64026,
2006-12-21, 01:22:00,VALID,915.026,VALID,0,VALID,93.2455,VALID,-0.0169808,VALID,19.88,VALID,9,VALID,1.74855,
2006-12-21, 01:23:00,VALID,915.026,VALID,0,VALID,93.1883,VALID,-0.0169808,VALID,19.9002,VALID,13,VALID,1.70579,
2006-12-21, 01:24:00,VALID,915.047,VALID,0,VALID,93.0904,VALID,-0.0169808,VALID,19.9098,VALID,16,VALID,1.64063,
2006-12-21, 01:25:00,VALID,915.063,VALID,0,VALID,93.0179,VALID,-0.0339617,VALID,19.919,VALID,1,VALID,1.44382,
2006-12-21, 01:26:00,VALID,915.079,VALID,0,VALID,93.1031,VALID,0,VALID,19.8989,VALID,2,VALID,1.80915,
2006-12-21, 01:27:00,VALID,915.091,VALID,0,VALID,93.2112,VALID,-0.0169808,VALID,19.8867,VALID,16,VALID,1.63663,
2006-12-21, 01:28:00,VALID,915.108,VALID,0,VALID,93.3332,VALID,-0.0169808,VALID,19.8703,VALID,14,VALID,1.63605,
2006-12-21, 01:29:00,VALID,915.13,VALID,0,VALID,93.3599,VALID,-0.0169808,VALID,19.8738,VALID,4,VALID,1.31008,
2006-12-21, 01:30:00,VALID,915.144,VALID,0,VALID,93.393,VALID,0,VALID,19.8872,VALID,4,VALID,1.53013,
2006-12-21, 01:31:00,VALID,915.155,VALID,0,VALID,93.276,VALID,0,VALID,19.8897,VALID,3,VALID,1.02379,
2006-12-21, 01:32:00,VALID,915.141,VALID,0,VALID,93.3332,VALID,0,VALID,19.8833,VALID,4,VALID,1.48872,
2006-12-21, 01:33:00,VALID,915.16,VALID,0,VALID,93.3892,VALID,0,VALID,19.8773,VALID,357,VALID,1.42496,
2006-12-21, 01:34:00,VALID,915.151,VALID,0,VALID,93.5952,VALID,-0.0339617,VALID,19.8515,VALID,15,VALID,1.68732,
2006-12-21, 01:35:00,VALID,915.146,VALID,0,VALID,93.6397,VALID,-0.0169808,VALID,19.845,VALID,21,VALID,1.91134,
2006-12-21, 01:36:00,VALID,915.158,VALID,0,VALID,93.6015,VALID,0,VALID,19.8708,VALID,21,VALID,1.98082,
2006-12-21, 01:37:00,VALID,915.16,VALID,0,VALID,93.3663,VALID,-0.0169808,VALID,19.9061,VALID,12,VALID,1.57776,
2006-12-21, 01:38:00,VALID,915.194,VALID,0,VALID,92.9988,VALID,-0.0169808,VALID,19.9769,VALID,9,VALID,1.71975,
2006-12-21, 01:39:00,VALID,915.219,VALID,0,VALID,92.7165,VALID,-0.0169808,VALID,20.042,VALID,354,VALID,1.32449,
2006-12-21, 01:40:00,VALID,915.229,VALID,0,VALID,92.6606,VALID,0,VALID,20.0514,VALID,15,VALID,1.59489,
2006-12-21, 01:41:00,VALID,915.245,VALID,0,VALID,92.6059,VALID,-0.0509425,VALID,20.0742,VALID,7,VALID,1.43663,
2006-12-21, 01:42:00,VALID,915.271,VALID,0,VALID,92.4902,VALID,0,VALID,20.1003,VALID,19,VALID,1.84593,
2006-12-21, 01:43:00,VALID,915.272,VALID,0,VALID,92.3503,VALID,-0.0169808,VALID,20.1324,VALID,21,VALID,1.6052,
2006-12-21, 01:44:00,VALID,915.289,VALID,0,VALID,92.2397,VALID,0.0169808,VALID,20.1614,VALID,13,VALID,1.21999,
2006-12-21, 01:45:00,VALID,915.298,VALID,0,VALID,92.2625,VALID,-0.0169808,VALID,20.1609,VALID,1,VALID,1.02363,
2006-12-21, 01:46:00,VALID,915.314,VALID,0,VALID,92.3477,VALID,0,VALID,20.145,VALID,340,VALID,0.77474,
2006-12-21, 01:47:00,VALID,915.318,VALID,0,VALID,92.3833,VALID,-0.0339617,VALID,20.1286,VALID,327,VALID,0.789253,
2006-12-21, 01:48:00,VALID,915.331,VALID,0,VALID,92.3973,VALID,0,VALID,20.1058,VALID,327,VALID,0.501143,
2006-12-21, 01:49:00,VALID,915.344,VALID,0,VALID,92.5817,VALID,0,VALID,20.0874,VALID,347,VALID,0.639205,
2006-12-21, 01:50:00,VALID,915.36,VALID,0,VALID,92.6656,VALID,0,VALID,20.0705,VALID,348,VALID,0.692383,
2006-12-21, 01:51:00,VALID,915.368,VALID,0,VALID,92.7178,VALID,0,VALID,20.0678,VALID,13,VALID,0.951389,
2006-12-21, 01:52:00,VALID,915.367,VALID,0,VALID,92.6949,VALID,0,VALID,20.074,VALID,360,VALID,0.761433,
2006-12-21, 01:53:00,VALID,915.392,VALID,0,VALID,92.5843,VALID,-0.0169808,VALID,20.0834,VALID,349,VALID,0.542302,
2006-12-21, 01:54:00,VALID,915.413,VALID,0,VALID,92.4685,VALID,0.0169808,VALID,20.0934,VALID,300,VALID,0.674293,
2006-12-21, 01:55:00,VALID,915.419,VALID,0,VALID,92.5614,VALID,0,VALID,20.0415,VALID,304,VALID,0.519336,
2006-12-21, 01:56:00,VALID,915.423,VALID,0,VALID,92.8538,VALID,-0.0169808,VALID,20.0191,VALID,338,VALID,0.488917,
2006-12-21, 01:57:00,VALID,915.428,VALID,0,VALID,93.07,VALID,0,VALID,20.003,VALID,22,VALID,0.987233,
2006-12-21, 01:58:00,VALID,915.446,VALID,0,VALID,93.1628,VALID,0.0169808,VALID,19.999,VALID,19,VALID,0.915305,
2006-12-21, 01:59:00,VALID,915.458,VALID,0,VALID,93.1272,VALID,0.0169808,VALID,20.0186,VALID,15,VALID,0.949673,
2006-12-21, 02:00:00,VALID,915.466,VALID,0,VALID,93.1171,VALID,0,VALID,20.0213,VALID,16,VALID,1.08232,
2006-12-21, 02:01:00,VALID,915.475,VALID,0,VALID,93.0687,VALID,0,VALID,20.0482,VALID,359,VALID,1.02708,
2006-12-21, 02:02:00,VALID,915.476,VALID,0,VALID,93.0242,VALID,0.0509425,VALID,20.0643,VALID,360,VALID,1.0875,
2006-12-21, 02:03:00,VALID,915.474,VALID,0,VALID,92.9645,VALID,0.0169808,VALID,20.0839,VALID,22,VALID,1.28559,
2006-12-21, 02:04:00,VALID,915.484,VALID,0,VALID,92.775,VALID,0,VALID,20.1117,VALID,34,VALID,0.803299,
2006-12-21, 02:05:00,VALID,915.478,VALID,0,VALID,92.7101,VALID,0.0509425,VALID,20.1418,VALID,25,VALID,1.47124,
2006-12-21, 02:06:00,VALID,915.48,VALID,0,VALID,92.6199,VALID,0.0679233,VALID,20.1741,VALID,16,VALID,1.34878,
2006-12-21, 02:07:00,VALID,915.481,VALID,0,VALID,92.527,VALID,0.101885,VALID,20.2029,VALID,6,VALID,1.38072,
2006-12-21, 02:08:00,VALID,915.49,VALID,0,VALID,92.3986,VALID,0.118866,VALID,20.2257,VALID,11,VALID,1.42099,
2006-12-21, 02:09:00,VALID,915.485,VALID,0,VALID,92.2816,VALID,0.20377,VALID,20.2451,VALID,11,VALID,1.4549,
2006-12-21, 02:10:00,VALID,915.504,VALID,0,VALID,92.246,VALID,0.254712,VALID,20.2478,VALID,7,VALID,1.42396,
2006-12-21, 02:11:00,VALID,915.519,VALID,0,VALID,92.2155,VALID,0.322636,VALID,20.2578,VALID,15,VALID,1.32222,
2006-12-21, 02:12:00,VALID,915.528,VALID,0,VALID,92.1875,VALID,0.441502,VALID,20.2511,VALID,352,VALID,1.1981,
2006-12-21, 02:13:00,VALID,915.529,VALID,0,VALID,92.0273,VALID,0.543387,VALID,20.2637,VALID,4,VALID,1.36662,
2006-12-21, 02:14:00,VALID,915.559,VALID,0,VALID,91.9472,VALID,0.679233,VALID,20.2831,VALID,4,VALID,1.17778,
2006-12-21, 02:15:00,VALID,915.561,VALID,0,VALID,91.9548,VALID,0.798099,VALID,20.3035,VALID,5,VALID,1.09411,
2006-12-21, 02:16:00,VALID,915.596,VALID,0,VALID,91.9256,VALID,0.950927,VALID,20.2895,VALID,13,VALID,1.47838,
2006-12-21, 02:17:00,VALID,915.618,VALID,0,VALID,91.9065,VALID,1.12073,VALID,20.3062,VALID,14,VALID,1.13398,
2006-12-21, 02:18:00,VALID,915.64,VALID,0,VALID,91.9167,VALID,1.25658,VALID,20.2995,VALID,12,VALID,1.06076,
2006-12-21, 02:19:00,VALID,915.674,VALID,0,VALID,91.9599,VALID,1.42639,VALID,20.296,VALID,1,VALID,1.11823,
2006-12-21, 02:20:00,VALID,915.699,VALID,0,VALID,92.0209,VALID,1.57922,VALID,20.2729,VALID,17,VALID,1.25484,
2006-12-21, 02:21:00,VALID,915.728,VALID,0,VALID,92.0515,VALID,1.71506,VALID,20.2737,VALID,7,VALID,1.26525,
2006-12-21, 02:22:00,VALID,915.74,VALID,0,VALID,92.0489,VALID,1.98676,VALID,20.2968,VALID,13,VALID,1.26632,
2006-12-21, 02:23:00,VALID,915.771,VALID,0,VALID,92.1506,VALID,2.34335,VALID,20.2702,VALID,19,VALID,1.26507,
2006-12-21, 02:24:00,VALID,915.807,VALID,0,VALID,92.3312,VALID,2.85278,VALID,20.2575,VALID,359,VALID,1.31603,
2006-12-21, 02:25:00,VALID,915.84,VALID,0,VALID,92.4622,VALID,3.48107,VALID,20.2215,VALID,360,VALID,1.4072,
2006-12-21, 02:26:00,VALID,915.859,VALID,0,VALID,92.4164,VALID,4.10936,VALID,20.2419,VALID,10,VALID,1.76491,
2006-12-21, 02:27:00,VALID,915.879,VALID,0,VALID,92.2422,VALID,4.72067,VALID,20.2734,VALID,20,VALID,2.02198,
2006-12-21, 02:28:00,VALID,915.898,VALID,0,VALID,92.2066,VALID,5.38292,VALID,20.3161,VALID,4,VALID,1.3846,
2006-12-21, 02:29:00,VALID,915.907,VALID,0,VALID,92.2028,VALID,6.1131,VALID,20.3189,VALID,11,VALID,1.34989,
2006-12-21, 02:30:00,VALID,915.918,VALID,0,VALID,92.1328,VALID,6.86026,VALID,20.3285,VALID,9,VALID,1.34251,
2006-12-21, 02:31:00,VALID,915.94,VALID,0,VALID,92.0235,VALID,7.47157,VALID,20.3643,VALID,11,VALID,1.83452,
2006-12-21, 02:32:00,VALID,915.956,VALID,0,VALID,91.9421,VALID,8.03193,VALID,20.406,VALID,355,VALID,1.94568,
2006-12-21, 02:33:00,VALID,915.985,VALID,0,VALID,91.9128,VALID,8.28664,VALID,20.4286,VALID,5,VALID,1.7474,
2006-12-21, 02:34:00,VALID,916.002,VALID,0,VALID,91.9472,VALID,8.45645,VALID,20.4415,VALID,1,VALID,1.23964,
2006-12-21, 02:35:00,VALID,916.009,VALID,0,VALID,92.0527,VALID,8.83003,VALID,20.448,VALID,357,VALID,1.44531,
2006-12-21, 04:00:00,VALID,917.526,VALID,0,VALID,92.2727,VALID,132.077,VALID,21.2868,VALID,20,VALID,3.99467,
2006-12-21, 04:01:00,VALID,917.553,VALID,0,VALID,92.789,VALID,128.596,VALID,21.2935,VALID,7,VALID,2.98857,
2006-12-21, 04:02:00,VALID,917.565,VALID,0,VALID,92.7076,VALID,126.269,VALID,21.297,VALID,15,VALID,3.12021,
2006-12-21, 04:03:00,VALID,917.586,VALID,0,VALID,92.405,VALID,131.415,VALID,21.3229,VALID,347,VALID,2.35069,
2006-12-21, 04:04:00,VALID,917.613,VALID,0,VALID,92.3427,VALID,138.852,VALID,21.3554,VALID,14,VALID,1.98964,
2006-12-21, 04:05:00,VALID,917.627,VALID,0,VALID,92.5601,VALID,144.065,VALID,21.3934,VALID,8,VALID,2.09038,
2006-12-21, 04:06:00,VALID,917.619,VALID,0,VALID,92.3935,VALID,146.103,VALID,21.423,VALID,27,VALID,2.65662,
2006-12-21, 04:07:00,VALID,917.631,VALID,0,VALID,92.4011,VALID,145.067,VALID,21.416,VALID,25,VALID,1.92129,
2006-12-21, 04:08:00,VALID,917.664,VALID,0,VALID,91.9917,VALID,144.728,VALID,21.413,VALID,7,VALID,3.1254,
2006-12-21, 04:09:00,VALID,917.689,VALID,0,VALID,92.2664,VALID,147.224,VALID,21.4128,VALID,6,VALID,2.21129,
2006-12-21, 04:10:00,VALID,917.693,VALID,0,VALID,92.7966,VALID,151.571,VALID,21.4461,VALID,357,VALID,1.56523,
2006-12-21, 04:11:00,VALID,917.711,VALID,0,VALID,92.8322,VALID,152.437,VALID,21.4488,VALID,14,VALID,1.71373,
2006-12-21, 04:12:00,VALID,917.717,VALID,0,VALID,92.8615,VALID,150.875,VALID,21.4324,VALID,11,VALID,1.29989,
2006-12-21, 04:13:00,VALID,917.726,VALID,0,VALID,92.3922,VALID,155.833,VALID,21.4391,VALID,19,VALID,3.13332,
2006-12-21, 04:14:00,VALID,917.75,VALID,0,VALID,92.9289,VALID,167.414,VALID,21.4424,VALID,23,VALID,1.6082,
2006-12-21, 04:15:00,VALID,917.774,VALID,0,VALID,93.0471,VALID,168.314,VALID,21.4647,VALID,4,VALID,2.08185,
2006-12-21, 04:16:00,VALID,917.803,VALID,0,VALID,93.0815,VALID,166.31,VALID,21.4644,VALID,22,VALID,2.97337,
2006-12-21, 04:17:00,VALID,917.786,VALID,0,VALID,93.1399,VALID,169.893,VALID,21.4588,VALID,26,VALID,2.06771,
2006-12-21, 04:18:00,VALID,917.778,VALID,0,VALID,93.585,VALID,183.104,VALID,21.4448,VALID,21,VALID,2.00763,
2006-12-21, 04:19:00,VALID,917.787,VALID,0,VALID,93.8292,VALID,199.847,VALID,21.4741,VALID,18,VALID,1.37882,
2006-12-21, 04:20:00,VALID,917.807,VALID,0,VALID,93.8546,VALID,203.634,VALID,21.5096,VALID,19,VALID,1.53652,
2006-12-21, 04:21:00,VALID,917.823,VALID,0,VALID,93.7592,VALID,194.261,VALID,21.5613,VALID,15,VALID,0.923921,
2006-12-21, 04:22:00,VALID,917.831,VALID,0,VALID,93.7757,VALID,173.578,VALID,21.6259,VALID,34,VALID,1.67588,
2006-12-21, 04:23:00,VALID,917.824,VALID,0,VALID,92.6898,VALID,163.984,VALID,21.6264,VALID,34,VALID,2.03802,
2006-12-21, 04:24:00,VALID,917.809,VALID,0,VALID,92.8348,VALID,165.886,VALID,21.6455,VALID,37,VALID,2.03487,
2006-12-21, 04:25:00,VALID,917.815,VALID,0,VALID,92.8093,VALID,170.572,VALID,21.6549,VALID,40,VALID,1.96056,
2006-12-21, 04:26:00,VALID,917.83,VALID,0,VALID,92.2346,VALID,171.405,VALID,21.6708,VALID,35,VALID,2.98847,
2006-12-21, 04:27:00,VALID,917.85,VALID,0,VALID,91.9752,VALID,172.984,VALID,21.6377,VALID,32,VALID,2.5016,
2006-12-21, 04:28:00,VALID,917.863,VALID,0,VALID,92.1481,VALID,181.95,VALID,21.6703,VALID,32,VALID,1.29268,
2006-12-21, 04:29:00,VALID,917.868,VALID,0,VALID,92.0349,VALID,193.717,VALID,21.7187,VALID,40,VALID,2.02484,
2006-12-21, 04:30:00,VALID,917.877,VALID,0,VALID,91.5937,VALID,196.214,VALID,21.73,VALID,40,VALID,2.20994,
2006-12-21, 04:31:00,VALID,917.867,VALID,0,VALID,91.4144,VALID,199.559,VALID,21.7529,VALID,45,VALID,2.14729,
2006-12-21, 04:32:00,VALID,917.876,VALID,0,VALID,91.7679,VALID,214.655,VALID,21.8084,VALID,52,VALID,1.87082,
2006-12-21, 04:33:00,VALID,917.883,VALID,0,VALID,91.3292,VALID,236.186,VALID,21.863,VALID,43,VALID,2.56079,
2006-12-21, 04:34:00,VALID,917.881,VALID,0,VALID,91.0927,VALID,254.237,VALID,21.863,VALID,46,VALID,2.30521,
2006-12-21, 04:35:00,VALID,917.878,VALID,0,VALID,91.0863,VALID,254.322,VALID,21.8592,VALID,36,VALID,2.37444,
2006-12-21, 04:36:00,VALID,917.862,VALID,0,VALID,91.9027,VALID,329.632,VALID,21.9115,VALID,9,VALID,1.66824,
2006-12-21, 04:37:00,VALID,917.845,VALID,0,VALID,91.7208,VALID,293.276,VALID,22.0245,VALID,48,VALID,1.443,
2006-12-21, 04:38:00,VALID,917.859,VALID,0,VALID,91.5606,VALID,292.767,VALID,22.1012,VALID,6,VALID,1.79137,
2006-12-21, 04:39:00,VALID,917.832,VALID,0,VALID,90.7074,VALID,277.059,VALID,22.1467,VALID,30,VALID,2.37918,
2006-12-21, 04:40:00,VALID,917.824,VALID,0,VALID,90.2064,VALID,288.708,VALID,22.1435,VALID,9,VALID,1.79865,
2006-12-21, 04:41:00,VALID,917.834,VALID,0,VALID,89.6023,VALID,302.106,VALID,22.1849,VALID,13,VALID,2.40358,
2006-12-21, 04:42:00,VALID,917.826,VALID,0,VALID,89.2844,VALID,296.349,VALID,22.2008,VALID,26,VALID,2.74554,
2006-12-21, 04:43:00,VALID,917.827,VALID,0,VALID,88.7605,VALID,289.914,VALID,22.1878,VALID,41,VALID,2.71806,
2006-12-21, 04:44:00,VALID,917.808,VALID,0,VALID,88.2735,VALID,294.787,VALID,22.2005,VALID,4,VALID,1.96151,
2006-12-21, 04:45:00,VALID,917.806,VALID,0,VALID,89.0594,VALID,270.488,VALID,22.2654,VALID,343,VALID,1.51892,
2006-12-21, 04:46:00,VALID,917.803,VALID,0,VALID,89.3963,VALID,281.389,VALID,22.3625,VALID,29,VALID,1.60245,
2006-12-21, 04:47:00,VALID,917.765,VALID,0,VALID,87.5652,VALID,267.584,VALID,22.4169,VALID,28,VALID,2.76181,
2006-12-21, 04:48:00,VALID,917.766,VALID,0,VALID,87.7382,VALID,249.771,VALID,22.4979,VALID,43,VALID,2.26734,
2006-12-21, 04:49:00,VALID,917.757,VALID,0,VALID,88.5278,VALID,240.211,VALID,22.6818,VALID,14,VALID,1.22324,
2006-12-21, 04:50:00,VALID,917.767,VALID,0,VALID,88.5062,VALID,244.048,VALID,22.9596,VALID,1,VALID,0.899926,
2006-12-21, 04:51:00,VALID,917.778,VALID,0,VALID,86.6217,VALID,256.529,VALID,23.221,VALID,35,VALID,1.05575,
2006-12-21, 04:52:00,VALID,917.77,VALID,0,VALID,85.0894,VALID,277.671,VALID,23.4075,VALID,350,VALID,1.95655,
2006-12-21, 04:53:00,VALID,917.79,VALID,0,VALID,85.1428,VALID,298.88,VALID,23.5173,VALID,9,VALID,1.77907,
2006-12-21, 04:54:00,VALID,917.804,VALID,0,VALID,83.3588,VALID,308.61,VALID,23.5273,VALID,351,VALID,2.01363,
2006-12-21, 04:55:00,VALID,917.797,VALID,0,VALID,84.0302,VALID,304.449,VALID,23.5073,VALID,50,VALID,1.78806,
2006-12-21, 04:56:00,VALID,917.791,VALID,0,VALID,84.2336,VALID,304.908,VALID,23.6104,VALID,32,VALID,1.26651,
2006-12-21, 04:57:00,VALID,917.807,VALID,0,VALID,84.1701,VALID,309.832,VALID,23.7691,VALID,21,VALID,1.31836,
2006-12-21, 04:58:00,VALID,917.813,VALID,0,VALID,82.9671,VALID,302.089,VALID,23.8557,VALID,22,VALID,1.758,
2006-12-21, 04:59:00,VALID,917.799,VALID,0,VALID,82.0185,VALID,283.053,VALID,23.8166,VALID,20,VALID,2.50908,